Location: Warszawa
(52.2500°N, 21.0000°E)
Time: 14:10:08
(UTC+02:00)

Vanguard 2 - Pass Details

Date: 07 February 2023
Orbit: 553 x 2927 km, 32.9° (Epoch: 27 March)

Event Time Altitude Azimuth Distance (km) Brightness Sun altitude
Rises 03:05:18 0° 269° (W) 6,620 - -36.8°
Reaches altitude 10° 03:12:47 10° 250° (WSW) 5,750 - -35.8°
Maximum altitude 03:20:29 15° 223° (SW) 5,318 - -34.7°
Drops below altitude 10° 03:27:57 10° 197° (SSW) 5,489 - -33.6°
Exits shadow 03:28:59 - 193° (SSW) 5,559 11.6 -33.4°
Sets 03:34:51 0° 176° (S) 6,139 12.0 -32.6°
